Starlink 34937

operational
NORAD ID: 66192 Int'l Des: 2025-243 Owner: SPXS Country: US Constellation: starlink
LEOCIRCULAR

关于 Starlink 34937

正在加载描述...

实时位置

正在加载3D地球...

即将过境

高度历史

Altitude vs Time

uPlot chart will show altitude changes over time

两行轨道根数

1 66192U 25243R 25349.13607408 .00019881 00000-0 68138-3 0 9998
2 66192 53.1623 278.3247 0000972 71.0945 289.0161 15.30208397 7702
Epoch: Dec 15, 2025 • Age: 25 hours

当前状态

高度 487.6 km
速度 7.62 km/s
星下点 -37.02°S, 13.88°W
发射日期 Oct 26, 2025
运行时间 0.1 years
类型 internet

技术详情

分类 Payload
质量 575.00 kg
干质量 530.00 kg
总质量 575.00 kg
长度 0.30 m
直径 4.10 m
跨度 29.00 m
形状 Box + pan
制造商 SPXS
平台类型 Starlink V2MO
阶段状态 In Orbit
所有者/国家 SPXS/US

大型星座

Loading constellations...